Location: Chavannes
(47.1090°N, 0.2226°W)
Time: 15:56:42
(UTC+00:00)

CZ-4 R/B - Pass Details

Date: 16 October 2021
Orbit: 530 x 595 km, 97.8° (Epoch: 07 December)

Event Time Altitude Azimuth Distance (km) Brightness Sun altitude
Rises 18:03:34 0° 143° (SE) 2,707 4.5 -9.6°
Reaches altitude 10° 18:05:46 10° 134° (SE) 1,829 3.6 -10.0°
Maximum altitude 18:09:23 35° 69° (ENE) 925 2.0 -10.6°
Drops below altitude 10° 18:13:04 10° 3° (N) 1,879 4.0 -11.2°
Sets 18:15:22 0° 355° (N) 2,793 5.0 -11.6°
